Location: Hains Lake
(37.8540°N, 99.8578°W)
Time: 17:10:18
(UTC+00:00)

X-37B - Visible Passes

Search period start: 15 June 2021 00:00
Search period end: 25 June 2021 00:00
Orbit: 386 x 389 km, 45.0° (Epoch: 10 June)

Date Brightness Start Highest point End Pass type
(mag) Time Alt. Az. Time Alt. Az. Time Alt. Az.
15 Jun 2.8 08:13:22 27° NE 08:13:22 27° NE 08:15:07 10° NE visible
15 Jun 3.0 09:46:40 10° NW 09:49:12 21° N 09:51:44 10° NE visible
16 Jun 2.7 08:49:32 20° NW 08:50:37 24° N 08:53:17 10° NE visible
16 Jun 2.9 10:25:12 10° NW 10:27:53 24° N 10:30:34 10° ENE visible
17 Jun 3.2 07:53:27 21° NNE 07:53:27 21° NNE 07:54:56 10° NE visible
17 Jun 3.1 09:26:46 10° NW 09:29:19 22° N 09:31:52 10° ENE visible
18 Jun 3.0 08:29:40 18° NNW 08:30:44 21° N 08:33:16 10° NE visible
18 Jun 2.5 10:05:04 10° NW 10:07:57 31° NNE 10:10:50 10° E visible
19 Jun 3.6 07:33:43 17° NNE 07:33:43 17° NNE 07:34:49 10° NE visible
19 Jun 2.9 09:06:44 10° NW 09:09:25 24° N 09:12:07 10° ENE visible
19 Jun 0.7 10:43:12 10° WNW 10:46:23 80° NNE 10:49:32 10° ESE visible
20 Jun 3.1 08:10:13 20° NNW 08:10:51 22° N 08:13:24 10° ENE visible
20 Jun 1.7 09:44:53 10° NW 09:47:58 46° NNE 09:51:03 10° E visible
21 Jun 2.5 08:47:08 14° NW 08:49:29 31° NNE 08:52:22 10° E visible
21 Jun 0.7 10:23:08 10° WNW 10:26:14 52° SSW 10:29:19 10° SE visible
22 Jun 2.2 02:58:21 10° S 03:00:22 16° SE 03:01:06 15° ESE visible
22 Jun 3.4 04:33:32 10° WSW 04:33:39 11° WSW 04:33:39 11° WSW visible
22 Jun 3.4 07:52:39 16° NE 07:52:39 16° NE 07:53:39 10° ENE visible
22 Jun 0.6 09:25:04 12° WNW 09:27:55 81° NNE 09:31:04 10° ESE visible
23 Jun 0.5 03:35:13 10° SW 03:38:21 61° SSE 03:41:14 12° ENE visible
23 Jun 3.1 05:12:18 10° WNW 05:13:41 20° WNW 05:13:41 20° WNW visible
23 Jun 3.4 08:32:12 13° E 08:32:12 13° E 08:32:34 10° E visible
23 Jun 1.6 10:04:44 20° WSW 10:06:01 26° SW 10:08:43 10° SSE visible
24 Jun 1.4 02:37:14 10° SSW 02:40:05 30° SE 02:42:56 10° E visible
24 Jun 1.9 04:13:37 10° W 04:16:40 42° NNW 04:19:35 11° NE visible
24 Jun 3.7 05:51:16 10° NW 05:51:55 14° NW 05:51:55 14° NW visible
